When you browse on this site, cookies collect data to enhance your experience and personalize the content and advertising you see.
Visit our Privacy Policy to learn more. By continuing to use the site, you agree to this use of cookies and data.
  • In Hungary
  • List of Countries
  • For 7 days
  • Water Temperature
  • Satellite Maps
  • Weather Map
  • News
  • Weather Widgets
  • user-avatar
    Login

    Hourly Weather Fagersta

    Today, 24 June, Monday

    Time Temperature Precipitation Wind Pressure Humidity
    00:00 +12°C° 0 mm 1 mps 758 mmHg 64%
    01:00 +11°C° 0 mm 1 mps 759 mmHg 70%
    02:00 +11°C° 0 mm 1 mps 759 mmHg 74%
    03:00 +10°C° 0 mm 2 mps 760 mmHg 77%
    04:00 +10°C° 0 mm 2 mps 760 mmHg 81%
    05:00 +13°C° 0 mm 2 mps 760 mmHg 74%
    06:00 +13°C° 0 mm 3 mps 761 mmHg 66%
    07:00 +16°C° 0 mm 3 mps 761 mmHg 58%
    08:00 +17°C° 0 mm 3 mps 761 mmHg 53%
    09:00 +19°C° 0 mm 2 mps 762 mmHg 47%
    10:00 +21°C° 0 mm 2 mps 762 mmHg 42%
    11:00 +23°C° 0 mm 2 mps 762 mmHg 39%
    12:00 +24°C° 0 mm 1 mps 762 mmHg 36%
    13:00 +25°C° 0 mm 1 mps 762 mmHg 32%
    14:00 +25°C° 0 mm 1 mps 762 mmHg 33%
    15:00 +25°C° 0 mm 1 mps 761 mmHg 34%
    16:00 +24°C° 0 mm 2 mps 761 mmHg 34%
    17:00 +23°C° 0 mm 2 mps 761 mmHg 39%
    18:00 +21°C° 0 mm 2 mps 761 mmHg 44%
    19:00 +20°C° 0 mm 2 mps 761 mmHg 49%
    20:00 +19°C° 0 mm 2 mps 761 mmHg 55%
    21:00 +17°C° 0 mm 2 mps 761 mmHg 61%
    22:00 +16°C° 0 mm 2 mps 761 mmHg 68%
    23:00 +15°C° 0 mm 2 mps 761 mmHg 70%

    Tomorrow, 25 June, Tuesday

    Time Temperature Precipitation Wind Pressure Humidity
    00:00 +15°C° 0 mm 2 mps 761 mmHg 71%
    01:00 +14°C° 0 mm 2 mps 762 mmHg 73%
    02:00 +14°C° 0 mm 2 mps 761 mmHg 76%
    03:00 +14°C° 0 mm 1 mps 761 mmHg 78%
    04:00 +13°C° 0 mm 1 mps 761 mmHg 80%
    05:00 +15°C° 0 mm 1 mps 761 mmHg 75%
    06:00 +16°C° 0 mm 1 mps 761 mmHg 71%
    07:00 +17°C° 0 mm 2 mps 761 mmHg 67%
    08:00 +18°C° 0 mm 2 mps 761 mmHg 60%
    09:00 +20°C° 0 mm 2 mps 761 mmHg 53%
    10:00 +21°C° 0 mm 2 mps 761 mmHg 46%
    11:00 +21°C° 0 mm 2 mps 761 mmHg 47%
    12:00 +21°C° 0 mm 2 mps 760 mmHg 45%
    13:00 +21°C° 0 mm 2 mps 760 mmHg 43%
    14:00 +20°C° 0 mm 2 mps 760 mmHg 48%
    15:00 +21°C° 0 mm 1 mps 759 mmHg 52%
    16:00 +20°C° 0 mm 1 mps 759 mmHg 56%
    17:00 +19°C° 0.1 mm 1 mps 759 mmHg 63%
    18:00 +18°C° 0.1 mm 1 mps 758 mmHg 70%
    19:00 +16°C° 0.1 mm 2 mps 758 mmHg 77%
    20:00 +16°C° 0.1 mm 1 mps 758 mmHg 81%
    21:00 +15°C° 0.1 mm 1 mps 758 mmHg 86%
    22:00 +15°C° 0.1 mm 1 mps 758 mmHg 91%
    23:00 +15°C° 0 mm 1 mps 757 mmHg 92%

    Day after tomorrow, 26 June, Wednesday

    Time Temperature Precipitation Wind Pressure Humidity
    00:00 +14°C° 0 mm 1 mps 757 mmHg 94%
    01:00 +14°C° 0 mm 1 mps 757 mmHg 96%
    02:00 +14°C° 0.3 mm 1 mps 757 mmHg 96%
    03:00 +14°C° 0.3 mm 1 mps 756 mmHg 96%
    04:00 +14°C° 0.3 mm 1 mps 756 mmHg 96%
    05:00 +14°C° 0.3 mm 1 mps 755 mmHg 96%
    06:00 +13°C° 0.3 mm 0 mps 755 mmHg 95%
    07:00 +13°C° 0.3 mm 0 mps 755 mmHg 95%
    08:00 +13°C° 0.6 mm 0 mps 755 mmHg 95%
    09:00 +14°C° 0.6 mm 1 mps 755 mmHg 95%
    10:00 +14°C° 0.6 mm 1 mps 754 mmHg 96%
    11:00 +14°C° 0.2 mm 1 mps 754 mmHg 95%
    12:00 +15°C° 0.2 mm 1 mps 753 mmHg 94%
    13:00 +15°C° 0.2 mm 1 mps 753 mmHg 93%
    14:00 +19°C° 0 mm 1 mps 753 mmHg 80%
    15:00 +21°C° 0 mm 1 mps 752 mmHg 67%
    16:00 +24°C° 0 mm 1 mps 752 mmHg 54%
    17:00 +23°C° 0.1 mm 1 mps 752 mmHg 59%
    18:00 +22°C° 0.1 mm 1 mps 752 mmHg 63%
    19:00 +21°C° 0.1 mm 1 mps 751 mmHg 68%
    20:00 +19°C° 0 mm 1 mps 751 mmHg 73%
    21:00 +16°C° 0 mm 1 mps 751 mmHg 79%
    22:00 +15°C° 0 mm 1 mps 752 mmHg 85%
    23:00 +14°C° 0 mm 1 mps 752 mmHg 84%

    27 June, Thursday

    Time Temperature Precipitation Wind Pressure Humidity
    00:00 +14°C° 0 mm 2 mps 752 mmHg 83%
    01:00 +13°C° 0 mm 2 mps 752 mmHg 82%
    02:00 +13°C° 0 mm 2 mps 752 mmHg 78%
    03:00 +12°C° 0 mm 2 mps 752 mmHg 73%
    04:00 +10°C° 0 mm 2 mps 752 mmHg 69%
    05:00 +13°C° 0 mm 2 mps 752 mmHg 63%
    06:00 +15°C° 0 mm 2 mps 752 mmHg 57%
    07:00 +17°C° 0 mm 2 mps 752 mmHg 51%
    08:00 +18°C° 0 mm 2 mps 752 mmHg 48%
    09:00 +19°C° 0 mm 2 mps 752 mmHg 44%
    10:00 +19°C° 0 mm 2 mps 753 mmHg 41%
    11:00 +20°C° 0 mm 3 mps 752 mmHg 38%
    12:00 +21°C° 0 mm 3 mps 752 mmHg 34%
    13:00 +22°C° 0 mm 4 mps 752 mmHg 30%
    14:00 +22°C° 0 mm 4 mps 752 mmHg 32%
    15:00 +22°C° 0 mm 4 mps 751 mmHg 34%
    16:00 +22°C° 0 mm 4 mps 751 mmHg 35%
    17:00 +21°C° 0 mm 4 mps 751 mmHg 39%
    18:00 +20°C° 0 mm 3 mps 751 mmHg 43%
    19:00 +19°C° 0 mm 3 mps 751 mmHg 47%
    20:00 +17°C° 0 mm 3 mps 751 mmHg 50%
    21:00 +15°C° 0 mm 2 mps 752 mmHg 54%
    22:00 +14°C° 0 mm 2 mps 752 mmHg 58%
    23:00 +13°C° 0 mm 2 mps 752 mmHg 61%

    28 June, Friday

    Time Temperature Precipitation Wind Pressure Humidity
    00:00 +12°C° 0 mm 2 mps 752 mmHg 63%
    01:00 +10°C° 0 mm 2 mps 752 mmHg 66%
    02:00 +9°C° 0 mm 2 mps 752 mmHg 67%
    03:00 +9°C° 0 mm 2 mps 752 mmHg 69%
    04:00 +9°C° 0 mm 2 mps 752 mmHg 70%
    05:00 +11°C° 0 mm 3 mps 752 mmHg 63%
    06:00 +12°C° 0 mm 4 mps 752 mmHg 56%
    07:00 +14°C° 0 mm 5 mps 752 mmHg 50%
    08:00 +15°C° 0 mm 5 mps 752 mmHg 46%
    09:00 +16°C° 0 mm 5 mps 752 mmHg 42%
    10:00 +19°C° 0 mm 5 mps 752 mmHg 38%
    11:00 +19°C° 0 mm 5 mps 752 mmHg 35%
    12:00 +20°C° 0 mm 5 mps 752 mmHg 33%
    13:00 +21°C° 0 mm 5 mps 752 mmHg 30%
    14:00 +21°C° 0 mm 4 mps 752 mmHg 29%
    15:00 +21°C° 0 mm 4 mps 752 mmHg 28%
    16:00 +21°C° 0 mm 4 mps 752 mmHg 27%
    17:00 +20°C° 0 mm 3 mps 752 mmHg 30%
    18:00 +20°C° 0 mm 3 mps 751 mmHg 34%
    19:00 +19°C° 0 mm 2 mps 751 mmHg 38%
    20:00 +17°C° 0 mm 2 mps 752 mmHg 43%
    21:00 +14°C° 0 mm 2 mps 752 mmHg 48%
    22:00 +12°C° 0 mm 2 mps 752 mmHg 53%
    23:00 +10°C° 0 mm 2 mps 752 mmHg 55%

    29 June, Saturday

    Time Temperature Precipitation Wind Pressure Humidity
    00:00 +9°C° 0 mm 2 mps 752 mmHg 57%
    01:00 +8°C° 0 mm 2 mps 752 mmHg 59%
    02:00 +8°C° 0 mm 2 mps 752 mmHg 60%
    03:00 +8°C° 0 mm 2 mps 752 mmHg 61%
    04:00 +7°C° 0 mm 2 mps 753 mmHg 63%
    05:00 +9°C° 0 mm 2 mps 753 mmHg 57%
    06:00 +10°C° 0 mm 3 mps 753 mmHg 51%
    07:00 +12°C° 0 mm 3 mps 753 mmHg 46%
    08:00 +13°C° 0 mm 3 mps 753 mmHg 42%
    09:00 +16°C° 0 mm 3 mps 753 mmHg 39%
    10:00 +17°C° 0 mm 3 mps 753 mmHg 36%
    11:00 +18°C° 0 mm 3 mps 753 mmHg 33%
    12:00 +19°C° 0 mm 3 mps 752 mmHg 31%
    13:00 +20°C° 0 mm 3 mps 752 mmHg 29%
    14:00 +20°C° 0 mm 3 mps 752 mmHg 29%
    15:00 +21°C° 0 mm 3 mps 751 mmHg 29%
    16:00 +21°C° 0 mm 3 mps 751 mmHg 29%
    17:00 +20°C° 0 mm 2 mps 751 mmHg 34%
    18:00 +20°C° 0 mm 2 mps 751 mmHg 39%
    19:00 +20°C° 0 mm 1 mps 750 mmHg 45%
    20:00 +19°C° 0 mm 1 mps 750 mmHg 49%
    21:00 +16°C° 0 mm 2 mps 750 mmHg 53%
    22:00 +14°C° 0 mm 2 mps 750 mmHg 57%
    23:00 +14°C° 0 mm 2 mps 750 mmHg 58%
    Show more